Home   Weather   Letterkenny   Past weeks

Flag for Ireland Past Weather in Letterkenny, Ireland — Yesterday and Last 2 Weeks

Now
43 °F

Quite cool.


Feels Like: 40 °F
Forecast: 31 / 43 °F
Wind: 5 mph from Southeast

Location: Castlederg

Current Time: Dec 3, 2016 at 1:47:07 pm

Latest Report: Dec 3, 2016 at 1:00 pm


Visibility: 13 mi

Pressure: 30.26 "Hg

Humidity: 84%

Dew Point: 39 °F

Location of LetterkennyLocation

Past Weather in Letterkenny — Graph

°F

Letterkenny Temperature Yesterday

Maximum temperature yesterday: 44 °F (at 3:00 pm)
Minimum temperature yesterday: 33 °F (at 9:00 am)
Average temperature yesterday: 37 °F

High & Low Weather Summary for the Past Weeks

 TemperatureHumidityPressure
High51 °F (Dec 1, 2:00 pm)100% (Nov 26, 5:00 am)30.56 "Hg (Nov 26, 5:00 am)
Low23 °F (Nov 20, 7:00 am)64% (Dec 1, 3:00 pm)29.26 "Hg (Nov 18, 12:00 pm)
Average37 °F92%30.12 "Hg
* Reported Nov 18 12:00 pm — Dec 3 12:00 pm, Letterkenny, Weather by CustomWeather, © 2016

Note: Actual official high and low records may vary slightly from our data, if they occured in-between our weather recording intervals... More about our weather records

Advertising

Letterkenny Weather History for the Previous 24 Hours

Scroll right to see more
 ConditionsComfort  
Time TempWeatherWind HumidityBarometerVisibility
12:00 pm
Sat, Dec 3
42 °FQuite cool.2 mph89%30.27 "Hg13 mi
11:00 am41 °FQuite cool.3 mph96%30.28 "Hg11 mi
10:00 am39 °FChilly.1 mph96%30.28 "Hg10 mi
9:00 am38 °FChilly.3 mph96%30.28 "Hg7 mi
8:00 am38 °FChilly.1 mph96%30.27 "Hg11 mi
7:00 am38 °FChilly.2 mph95%30.28 "Hg11 mi
6:00 am38 °FChilly.1 mph96%30.28 "Hg11 mi
5:00 am38 °FChilly.No wind95%30.28 "Hg12 mi
4:00 am38 °FChilly.1 mph95%30.29 "Hg13 mi
3:00 am38 °FChilly.1 mph93%30.30 "Hg13 mi
2:00 am38 °FChilly.1 mph94%30.30 "Hg11 mi
1:00 am38 °FChilly.2 mph95%30.31 "Hg8 mi
12:00 am38 °FChilly.1 mph93%30.32 "Hg8 mi
11:00 pm
Fri, Dec 2
38 °FChilly.1 mph91%30.32 "Hg8 mi
10:00 pm38 °FSmoke.3 mph92%30.32 "Hg4 mi
9:00 pm39 °FSmoke.2 mph92%30.32 "Hg4 mi
8:00 pm39 °FChilly.1 mph93%30.33 "Hg7 mi
7:00 pm40 °FChilly.1 mph95%30.34 "Hg9 mi
6:00 pm38 °FFog.3 mph96%30.34 "Hg6 mi
5:00 pm38 °FSmoke.1 mph92%30.34 "Hg5 mi
3:00 pm44 °FQuite cool.2 mph85%30.34 "Hg12 mi
2:00 pm43 °FQuite cool.1 mph88%30.35 "Hg9 mi
1:00 pm41 °FQuite cool.2 mph90%30.36 "Hg14 mi
Weather by CustomWeather, © 2016

See weather overviewHow to use our weather pages